Location: Unspecified
(0.0000°N, 0.0000°E)
Time: 18:28:23
(UTC+00:00)

AO-73 - Pass Details

Date: 29 September 2021
Orbit: 580 x 662 km, 97.6° (Epoch: 22 October)

Event Time Altitude Azimuth Distance (km) Brightness Sun altitude
Rises 04:55:26 0° 348° (NNW) 2,783 ? -13.7°
Reaches altitude 10° 04:57:56 10° 333° (NNW) 1,885 ? -13.1°
Maximum altitude 05:01:06 22° 281° (WNW) 1,279 ? -12.3°
Drops below altitude 10° 05:04:19 10° 230° (SW) 1,898 ? -11.5°
Sets 05:06:51 0° 214° (SW) 2,807 ? -10.9°
